Weather in Totomitsa

Russia / Kostroma Oblast     58°26′32″N   43°47′40″E
temp.,
°C
wind,
m/s
gust,
m/s
humid.,
%
clouds,
%
prec.,
mm/h
press.,
hPa
HPBL,
m
6 march, sat
sat600:00−17wnw239734 0.0 101028
03:00−19wnw239818 0.0 101224
06:00−19wnw239975 0.0 101230
09:00−16wnw249669 0.1 1013186
12:00−11wnw249092 0.1 1013639
15:00−10wnw348795 0.1 1012833
18:00−14w2294100 0.1 101120
21:00−17wsw229761 0.1 101120
7 march, sun
sun700:00−18ssw239849 0.0 100921
03:00−18s2510066 0.1 100792
06:00−18sse38100100 0.1 1005169
09:00−13sse41096100 0.1 1001369
12:00−9sse61194100 0.4 997692
15:00−7sse51094100 1.6 994923
18:00−8se41094100 0.9 991658
21:00−8ese41095100 1.9 989567
8 march, mon
mon800:00−8e4995100 0.9 987491
03:00−9ne4995100 1.6 988429
06:00−10ne4994100 0.7 989502
09:00−11nne4893100 1.2 991523
12:00−10n4891100 0.3 994653
15:00−10n5891100 0.5 997759
18:00−12n4992100 0.2 1000603
21:00−14n4109297 0.3 1004577
9 march, tue
tue900:00−17nnw389589 0.0 1006230
03:00−20nnw399792 0.0 1008261
06:00−24nnw379892 0.0 1010170
09:00−22nnw379687 0.0 1012318
12:00−18nnw369297 0.0 1013474
15:00−16nnw469099 0.1 1014626
18:00−20nnw3895100 0.1 1016234
21:00−24n379796 0.1 1018167
10 march, wed
wed1000:00−27nnw359840 0.0 102087
03:00−30nnw349720 0.0 102180
06:00−31nnw24970 0.0 102376
09:00−26nnw24950 0.0 1023242
12:00−19nw248612 0.0 1023446
15:00−16wnw358515 0.0 1022622
18:00−19wnw239698 0.0 102254
21:00−20w369898 0.0 1022131